Weather in Limanskoe

Ukraine / Odesa District     46°39′50″N   29°58′15″E
temp.,
°C
wind,
m/s
gust,
m/s
humid.,
%
clouds,
%
prec.,
mm/h
press.,
hPa
HPBL,
m
28 february, sun
sun2823:00+5nnw51080100 0.2 1023819
02:00+3nw6118296 0.3 1024799
05:00+3nnw6118382 0.1 1024828
08:00+3nnw7107791 0.1 1025772
11:00+6nnw786088 0.0 10261264
14:00+6nnw795993 0.1 10261427
17:00+5nw6966100 0.1 10251264
20:00+3nw4871100 0.1 1025594
1 march, mon
mon123:00+2w377892 0.0 1025313
02:00+2wnw479696 0.6 1024406
05:00+2nw3597100 0.5 1024250
08:00+2nne3496100 0.6 1025283
11:00+3nne4691100 0.1 1027441
14:00+4nne5785100 0.2 1029583
17:00+3n5789100 0.0 1030525
20:00+2n488995 0.0 1032254
2 march, tue
tue223:00+3n3778100 0.1 1033345
02:00+2nnw2674100 0.1 1033261
05:00+2nw2577100 0.0 1032164
08:00+3w3578100 0.0 1032207
11:00+6wnw566014 0.0 10311002
14:00+8w685645 0.0 1029822
17:00+8w6106224 0.0 1026790
20:00+6w4117512 0.0 1026273
3 march, wed
wed323:00+5wnw512770 0.0 1025335
02:00+4nw513840 0.0 1026445
05:00+4n7108140 0.0 1026674
08:00+3n798070 0.0 1028756
11:00+5nnw5768100 0.0 1030918
14:00+7nnw465998 0.0 1029965
17:00+7n35563 0.0 1028501
20:00+4ene11691 0.0 102922
4 march, thu
thu423:00+3se11740 0.0 102922
02:00+2sse22780 0.0 102822
05:00+1s23860 0.0 102623
08:00+3s35820 0.0 1025198
11:00+8ssw57680 0.0 1023593
14:00+12ssw79560 0.0 10201119
17:00+11s696320 0.0 1017687
20:00+6s6128235 0.0 1016411